Location: Edinburgh
(55.9500°N, 3.1600°W)
Time: 12:13:47
(UTC+01:00)

Envisat - Pass Details

Date: 20 February 2019
Orbit: 764 x 766 km, 98.1° (Epoch: 20 October)

Event Time Altitude Azimuth Distance (km) Brightness Sun altitude
Rises 18:52:45 0° 172° (S) 3,222 6.2 -12.6°
Reaches altitude 10° 18:55:04 10° 176° (S) 2,300 5.4 -13.0°
Maximum altitude 19:00:06 64° 258° (WSW) 850 3.5 -13.7°
Drops below altitude 10° 19:05:11 10° 340° (NNW) 2,316 5.8 -14.4°
Sets 19:07:32 0° 344° (NNW) 3,247 6.5 -14.7°
